{"data":{"norad_id":60593,"intl_designator":"2024-150L","name":"STARLINK-32161","alt_names":[],"object_type":"PAYLOAD","status":"ACTIVE","operator":null,"country":"US","launch_date":"2024-08-20","launch_site_code":"AFETR","launch_vehicle":null,"mission":null,"orbit_class":"UNKNOWN","rcs_meters":null,"size_class":null,"mass_kg":null,"dimensions":null,"purposes":["comms"],"wikipedia_slug":null,"has_3d_model":false,"image_url":null,"decayed_at":null,"tle_current":{"epoch":"2026-09-21T21:30:05.808384Z","epoch_age_seconds":67891,"freshness":"FRESH","line1":"1 60593U 24150L   26264.89590056  .00006042  00000+0  19000-3 0  9991","line2":"2 60593  53.1595 111.2545 0001153 114.5001 245.6122 15.34367916118067","mean_motion":15.34367916,"eccentricity":0.0001153,"inclination_deg":53.1595,"raan_deg":111.2545,"arg_perigee_deg":114.5001,"mean_anomaly_deg":245.6122,"bstar":0.00019,"rev_number":11806,"period_min":93.849720460396,"perigee_km":462.00984240323,"apogee_km":463.58736215311,"semimajor_km":6840.9356022782,"source":"CELESTRAK","updated_at":"2026-09-22T09:00:49.273261Z"}}}